STARLINK-36454, 67470

Orbit data source: Space-Track

STARLINK-36454, 67470 is a payload satellite owned by SpaceX/Seattle (US) in LEO that was launched on Wed, 14 Jan 2026 UTC via an FALCON 9 launch vehicle from the Air Force Eastern Test Range (AFETR). Payload-class satellites include a variety of spacecraft equipped with specific instruments for various scientific and technological missions. These include communications satellites like Starlink; space stations such as the ISS; scientific satellites like the Hubble; Earth observation satellites from companies like Planet Labs, Umbra, and HawkEye 360; GPS; miniature CubeSats for education and research; and military/defense satellites.

Loading next visibility...
Identifier
67470, 2026-008AB
Orbit
LEO
Country
Flag of USUS
Related business
Manufacturer
SpaceX/Seattle
Mission
Operational spacecraft
Bus & Motor
STARLINK V2MO, Unknown motor
Mass
575 kg wet, ~530 kg dry
Launch date (UTC)
2026-01-14 (2 months ago)
Launch vehicle
FALCON 9
Launch site
Air Force Eastern Test Range (AFETR)
Object type
Payload
Rocket body
Debris
Shape & HBR
Unknown shape, 17.7 m
Radar Cross Section
RCS unknown

Expand to show TLE details & history
Last TLE update: 17 hours ago

TLE from 17 hours ago
0 STARLINK-36454
1 67470U 26008AB  26062.53892574  .00042370  00000-0  15387-2 0  9991
2 67470  42.9954 239.7593 0001142 208.3316 151.7474 15.27615058  8634
Epoch: 2026-03-03T12:56Z
TLE epoch observation values (Epoch: 2026-03-03T12:56:03.183Z)
Latitude
-0.00001°
Longitude
-115.57051°
Altitude
483.409 km
Speed
7.625 km/s
True Right ascension
15h 59m 02s
True Declination
0° 00' 00"
Sunlit
Object was in daylight at epoch
Visualization orbit readout
Latitude
Unknown
Longitude
Unknown
Altitude
Unknown
Speed
Unknown
Apparent Right ascension
Unknown
Apparent Declination
Unknown
Sunlit
N/A
Visualization observer readout
Local Sidereal Time
10:02:44
Azimuth
Unknown
Elevation
Unknown
Doppler factor
Unknown
Orbital elements
Apogee altitude
485.674 km
Perigee altitude
484.106 km
Semi-major axis
6,863.027 km
Eccentricity
0.00011
Inclination
42.9954°
RAAN
239.7593°
Arg. of periapsis
208.3316°
True anomaly
151.75359°
Mean anomaly
151.7474°
Eccentric anomaly
151.7505°
Mean motion
3.81742 °/min
Orbital period
94.3 mins
BSTAR
0.0015387
Loading maneuver chart data...
Computing Atmospheric mass density...
Loading historical data...
Loading historical data...
Loading historical data...
Loading historical data...
Loading historical data...
Loading historical data...
Loading historical data...

Documentation

Showing up to 5 results
|